KUIPER-00126

导读

KUIPER-00147是美国亚马逊柯伊伯卫星互联网项目(现名Amazon Leo)的一颗低轨互联网卫星,于2025年9月25日发射。该项目计划在近地轨道部署数千颗卫星,为全球提供高速卫星互联网服务,聚焦企业与特定场景需求,是对标SpaceX星链的重要太空互联网项目,KUIPER-00147的成功入轨进一步推进了星座组网进程。

基本信息
目录编号:
65768
目录名称:
KUIPER-00147
国际标识:
2025-217G
轨道中心:
EARTH
卫星名称:
KUIPER-00147
卫星全名:
KUIPER-00126
卫星状态:
在轨 (已飞行305 天)
发射日期:
2025-09-25 UTC
国别 :
美国 (US)
星等 :
--
轨道信息
数据来源 国际轨道数据 AOE轨道数据
星历时间 2026-07-27T13:40:21+0800
17小时前
查看轨道信息
2026-07-21T18:00:00+0800
6天前
查看轨道信息
半长轴 7007.684km 7007.65km
偏心率 0.0001039 0.0000439
轨道倾角 51.897° 51.898°
近地点辐角 131.518° 74.481°
升交点赤经 143.507° 169.244°
平近点角 228.587° 220.877°
近地点 628.818km 629.205km
远地点 630.276km 629.821km
周期 97.302分钟 97.301分钟
每日圈数 14.799296 14.799404
详细信息
使用方式:
暂无
2D轨道图
3D轨道图
轨道高度分析图
轨道倾角分析图
轨道综合分析图
查看轨道综合分析图